Vorticity
8 7 5 4 5 6 1 3 8 3 6 7 4 5 3 4 3 2 3 3 7 9 11 6 -1 7 14 12 6 4 7 8 7 5 4 5 9 8 6 4 6 11 10 7 5 6 7 7 6 3 4 6 7 4 4 5 5 5 4 6 5 4 3 2 4 4 5 6 5 5 4 4 5 6 5 4 4 4 5 4 5 7 8 9 9 7 6 7 7 6 5 4 5 6 6 7 6
11 10 8 6 3 4 4 1 3 2 3 6 5 4 3 5 4 2 2 4 6 6 4 -2 -0 10 14 8 3 7 9 5 2 4 5 8 9 5 5 7 9 9 6 6 6 7 6 4 5 4 5 5 4 4 5 6 5 4 3 6 5 3 4 4 5 6 6 5 5 4 3 5 6 5 4 4 4 5 5 4 4 5 5 7 8 8 7 7 7 7 6 5 4 5 6 6 7
5 5 4 3 -1 1 5 6 6 1 1 7 8 4 3 6 6 4 0 3 6 5 5 2 8 11 4 -1 -0 5 5 4 2 4 6 7 6 4 5 4 7 6 3 5 5 5 3 3 7 6 6 4 3 4 5 5 4 5 5 5 5 3 5 6 5 6 5 5 4 3 5 5 6 4 4 4 5 6 5 4 3 3 4 5 6 8 9 8 8 7 7 6 4 4 4 6 7
2 4 3 3 3 4 2 4 4 -1 2 7 8 7 6 5 4 7 5 4 5 3 6 5 5 4 2 4 5 4 3 8 8 5 5 5 3 1 3 4 6 5 2 4 5 4 3 3 3 2 4 4 3 4 4 5 4 6 5 3 5 3 5 7 5 5 4 4 4 4 6 6 6 5 5 6 7 6 4 4 4 4 5 4 5 6 8 9 9 9 8 6 6 4 3 4 5
4 2 -0 2 7 7 6 5 0 -1 7 8 8 10 6 5 5 7 7 4 3 2 5 4 2 4 6 6 6 7 5 8 8 4 3 5 3 1 5 8 7 5 5 6 5 5 3 1 1 3 4 4 5 4 4 6 6 7 5 3 6 5 5 6 5 5 5 5 6 6 7 6 6 6 7 7 7 5 5 6 5 5 4 4 4 4 5 6 8 9 9 7 7 6 4 3 4
8 6 1 3 7 6 8 7 2 1 5 4 5 9 5 6 6 6 5 2 2 3 3 3 4 6 6 6 8 8 5 4 6 6 4 6 6 5 8 7 5 5 4 4 6 6 2 1 3 4 5 6 5 4 6 6 5 8 6 3 5 6 6 7 5 5 6 6 7 7 7 7 7 7 9 8 7 6 6 6 7 7 5 5 5 4 4 3 4 5 7 9 8 7 6 4 3
8 9 5 3 6 10 9 3 4 3 3 5 3 4 6 9 8 7 6 4 5 5 4 3 4 5 5 8 8 5 4 5 7 8 5 5 7 7 6 4 4 6 4 3 6 5 1 3 5 4 5 6 5 5 7 5 5 9 6 4 6 7 7 6 6 6 7 7 7 7 7 7 7 8 7 6 6 5 5 5 6 7 7 7 6 6 5 4 3 2 4 5 7 8 8 7 5
2 5 3 0 -2 2 9 6 6 5 3 7 5 4 5 7 9 8 7 6 7 7 6 6 5 5 6 6 5 7 7 7 6 5 4 5 6 5 6 6 4 6 7 4 5 5 3 4 6 5 5 5 6 6 7 5 6 8 7 6 8 7 7 7 6 7 7 8 7 7 7 6 6 6 6 5 5 4 4 4 4 5 5 6 6 6 6 5 4 4 4 3 4 6 8 9 8
1 1 5 9 2 -0 6 5 3 3 5 7 5 4 5 5 7 8 8 7 7 9 9 8 6 4 7 6 5 9 8 8 8 6 6 5 5 5 7 5 2 6 7 5 6 5 4 5 6 4 5 6 6 7 7 7 8 7 7 8 8 7 7 6 7 7 7 7 7 6 6 6 7 6 6 6 5 5 5 6 6 6 5 5 4 4 4 5 6 7 6 6 5 4 5 7 9
9 1 5 6 4 4 4 1 -0 2 5 8 8 6 5 6 6 7 7 7 7 9 9 7 7 6 7 10 8 8 8 8 8 6 6 5 5 5 5 5 4 6 5 4 5 4 4 5 5 5 5 6 6 8 8 8 9 7 7 8 7 7 7 6 7 7 7 6 6 7 7 7 7 7 7 7 8 8 8 8 8 10 10 10 9 6 3 3 3 3 4 5 5 6 6 6 7
11 4 5 8 9 7 8 8 4 6 7 7 10 9 7 6 7 7 5 6 7 6 8 7 8 8 7 8 7 8 8 7 7 5 5 6 5 4 3 5 6 5 4 4 4 3 4 5 5 5 6 6 7 8 8 9 8 6 7 7 7 7 7 7 7 6 6 6 6 6 6 7 7 7 8 9 9 9 10 10 9 9 10 13 16 14 12 10 7 5 4 4 3 2 4 5 6
4 2 0 4 4 4 10 5 -4 5 9 6 9 9 9 8 7 7 5 7 8 6 9 9 7 7 7 6 5 7 7 5 6 5 4 4 4 4 3 5 6 5 4 4 4 3 4 5 5 6 7 7 8 8 8 9 7 7 8 8 8 7 7 6 6 6 6 6 6 6 6 6 6 6 7 7 7 7 8 8 8 7 6 9 12 15 16 16 15 13 12 12 12 6 3 2 3
5 10 9 0 -1 5 5 -2 1 12 8 3 7 8 10 9 7 7 6 6 7 8 8 9 6 4 7 7 6 7 5 3 4 4 4 5 4 4 5 6 4 4 4 3 3 4 6 7 6 7 7 7 8 8 8 8 8 9 9 9 8 6 6 6 6 6 6 6 6 6 6 6 6 6 6 7 7 6 6 6 7 6 6 7 8 9 10 12 13 13 13 15 17 16 15 12 8
2 5 9 1 5 7 2 9 15 11 1 5 8 6 10 9 7 9 9 8 6 8 7 7 5 3 6 8 9 9 5 3 4 4 4 5 5 5 5 5 2 1 2 2 3 6 8 8 6 7 7 7 8 8 8 9 10 10 8 7 6 6 6 6 6 5 5 6 5 5 6 7 7 7 8 8 9 9 8 8 7 7 7 8 10 10 10 10 10 11 11 10 12 14 18 18 14
5 2 3 2 7 2 1 7 2 -2 -3 5 10 5 9 8 8 11 10 9 7 5 6 8 6 2 3 6 9 7 3 4 4 3 2 3 5 4 4 4 1 2 3 3 5 8 7 6 6 8 8 8 8 10 9 8 9 7 6 6 5 6 6 5 5 5 6 6 5 6 6 7 8 9 9 10 10 11 10 10 9 10 10 10 10 11 10 11 11 11 12 12 11 10 11 13 13
9 -3 -1 8 7 -1 4 5 -4 3 3 3 10 7 8 7 7 10 7 8 9 5 5 8 5 2 4 6 7 6 5 7 5 2 2 2 3 3 4 3 2 5 6 6 8 7 7 6 7 8 9 9 8 10 9 7 7 6 6 7 7 6 5 5 5 6 7 6 6 6 7 7 8 9 11 10 10 10 10 10 10 10 9 8 8 8 8 8 9 9 10 10 11 11 11 12 13
4 -7 7 16 8 2 7 15 8 4 2 4 10 7 9 8 7 9 7 10 10 5 4 5 3 2 5 3 3 7 8 7 5 3 3 2 2 2 3 4 4 7 8 8 9 7 7 7 7 8 9 10 9 8 7 6 6 7 7 6 7 6 5 5 6 7 7 6 6 6 6 7 8 9 9 8 8 8 8 8 7 6 6 5 5 5 5 5 6 6 6 6 8 9 10 11 12
2 2 13 5 4 13 9 12 12 8 10 10 8 7 8 8 9 8 8 11 11 10 10 7 4 4 4 3 4 7 6 6 7 6 2 1 3 4 5 6 7 8 8 9 9 7 8 8 7 7 8 9 8 6 5 5 5 5 5 5 5 5 6 6 5 7 7 6 6 6 6 7 8 7 7 7 6 6 5 5 4 4 4 3 4 4 5 5 4 5 5 5 6 6 6 7 8
3 4 10 1 -1 4 0 -1 4 9 10 7 7 7 7 9 10 7 8 10 10 15 12 4 4 6 5 6 9 9 5 6 9 7 5 5 6 6 7 7 8 8 9 9 9 9 9 8 8 9 10 9 7 5 3 3 3 4 4 5 5 5 6 6 5 6 7 6 7 8 6 7 7 6 5 5 5 5 4 3 2 3 3 3 4 5 5 6 5 6 6 6 6 5 5 5 5
5 3 -1 4 12 7 4 9 10 6 2 5 10 6 6 10 10 8 8 9 9 12 9 6 9 8 7 9 10 9 6 7 10 10 10 9 8 7 7 8 8 8 9 9 9 10 10 8 8 10 10 8 5 3 2 2 3 4 5 5 5 6 5 6 6 5 7 7 7 8 6 6 7 6 4 4 4 4 3 3 2 3 4 4 5 5 4 5 5 6 6 6 6 5 6 7 6
3 2 -16 -8 20 17 -0 5 11 7 5 7 8 8 8 8 10 9 6 7 9 8 9 12 12 7 8 13 13 9 5 7 11 12 10 7 7 7 7 8 9 9 9 9 10 9 9 8 8 10 8 6 4 2 2 3 4 4 5 5 5 6 5 6 6 5 7 8 7 8 6 5 5 5 5 4 5 4 3 4 4 4 4 4 5 4 3 3 4 5 5 5 5 5 4 6 5
-3 -5 -8 -3 10 6 -5 9 13 5 7 8 8 11 9 7 10 10 6 7 7 6 10 11 8 6 9 14 13 9 8 8 10 9 7 6 6 6 6 8 9 11 10 8 10 10 9 8 8 8 6 4 3 3 4 4 5 5 5 5 5 5 4 6 7 6 8 8 7 6 6 5 4 4 5 5 4 4 4 3 4 5 4 4 4 4 4 3 4 4 4 5 4 4 4 4 5
2 -2 1 2 1 1 5 19 13 3 9 7 9 11 7 9 10 10 9 6 5 7 9 8 8 8 9 13 12 10 10 8 8 8 7 7 7 7 7 8 9 10 10 9 9 9 8 8 7 6 5 4 3 4 5 5 5 5 5 5 5 5 4 6 8 7 8 9 7 6 5 5 4 4 4 4 4 5 5 4 5 5 3 3 4 4 3 3 5 4 4 4 4 4 4 4 5
5 1 -2 2 9 5 -2 8 7 6 11 7 9 9 7 10 8 10 9 3 4 8 8 7 11 14 12 12 11 10 9 7 9 8 7 9 9 8 8 9 10 10 9 9 9 8 7 7 6 5 4 4 5 5 5 6 6 6 6 6 5 6 7 6 7 6 7 8 7 7 7 4 3 4 4 3 4 4 4 5 5 5 3 4 4 4 4 3 5 5 4 5 4 4 3 4 5
13 7 -4 -6 7 8 1 2 -1 2 8 7 10 9 8 11 8 9 9 6 6 9 9 6 10 14 12 9 8 8 7 8 10 8 8 11 10 7 8 9 10 10 10 8 8 8 7 7 6 6 6 5 5 6 6 6 7 6 6 7 6 7 8 6 6 7 7 7 7 6 5 4 4 5 3 2 4 4 4 5 4 4 5 4 5 5 5 5 5 5 5 6 6 5 5 4 4
5 2 3 4 2 7 15 4 -9 3 11 7 9 11 10 9 8 9 8 7 9 11 9 7 9 11 9 7 7 8 8 11 10 10 10 10 10 8 8 10 10 10 9 9 9 8 8 7 7 6 5 5 5 5 6 6 7 6 5 6 7 7 8 8 8 8 8 7 8 7 4 3 5 5 3 2 4 5 3 4 4 4 5 4 4 5 6 5 6 6 5 6 7 5 6 6 5
-4 -9 7 25 16 1 11 17 6 8 11 8 9 11 9 6 7 9 9 7 8 13 11 9 10 10 9 7 7 8 11 16 12 12 13 9 10 10 9 8 8 8 7 7 8 7 7 7 6 6 4 4 5 6 7 6 6 6 5 5 6 6 8 8 7 7 7 6 7 7 6 4 6 6 4 2 4 5 3 4 5 5 5 5 4 5 5 5 5 6 5 5 6 5 6 6 5
2 11 5 0 11 5 3 13 10 2 6 11 10 9 8 7 8 7 9 9 8 11 11 10 10 10 10 7 7 9 14 16 11 11 11 9 10 11 10 8 6 6 6 5 5 5 5 5 5 5 5 5 6 7 6 6 5 5 5 6 6 6 7 7 6 5 6 6 5 6 6 5 6 5 4 4 4 5 4 4 5 5 5 5 5 5 4 5 5 4 5 5 5 5 5 5 5
-4 14 9 -18 -2 17 8 6 4 3 9 10 8 9 8 6 7 6 8 9 9 10 9 8 8 9 12 9 6 10 14 13 11 10 8 8 10 8 7 7 6 6 5 5 5 5 4 5 6 6 7 7 7 6 5 5 4 6 6 6 6 6 6 6 5 5 6 6 6 6 6 5 5 6 6 5 5 5 5 6 6 6 5 5 4 4 4 5 5 4 5 5 5 6 5 6 5
-3 -4 13 -1 -2 7 6 13 8 3 8 6 6 8 5 3 2 5 9 9 10 10 9 9 7 7 13 12 4 9 15 11 9 9 7 8 8 7 6 5 5 5 5 6 5 5 5 6 7 8 8 7 6 4 4 4 5 6 6 6 6 6 5 5 5 5 5 5 5 5 5 5 5 6 6 6 6 6 6 6 8 6 5 5 4 4 4 5 5 5 6 5 6 7 6 6 6
6 -8 3 5 9 5 5 19 11 5 13 7 6 7 5 5 3 5 10 9 10 9 8 9 8 6 11 11 3 6 13 11 10 8 6 7 7 6 6 5 6 6 7 7 7 6 6 8 8 7 6 5 4 3 3 4 5 6 6 6 6 6 5 4 5 5 5 5 5 5 5 6 6 5 6 7 6 7 7 6 6 6 5 5 5 4 4 5 5 5 6 6 7 7 7 7 7
7 -1 1 -0 5 6 10 16 5 4 9 3 8 8 3 8 7 6 8 8 8 9 9 8 9 7 8 10 6 5 9 10 10 10 7 6 8 9 8 8 6 6 7 6 7 7 6 7 7 6 5 4 4 3 4 4 5 7 6 6 5 6 5 5 5 5 6 5 5 6 6 7 7 6 6 5 5 6 6 6 5 6 5 5 4 3 3 3 4 4 5 6 6 7 8 8 8
4 5 10 3 -1 5 9 5 -2 0 -4 -2 10 5 -1 10 11 7 8 7 6 8 9 10 11 10 8 8 6 5 6 8 7 8 8 6 6 7 7 7 6 6 6 6 6 6 6 5 3 3 3 4 4 4 5 5 6 8 7 7 6 6 6 6 7 6 6 6 6 7 7 7 6 6 6 5 5 4 4 5 5 5 4 3 2 2 2 2 3 3 5 5 6 6 7 8 8
6 9 6 3 3 7 8 3 3 7 -1 -2 8 4 1 5 6 8 9 5 6 7 7 9 10 11 10 8 7 5 5 7 7 6 6 6 5 6 5 5 5 6 5 5 6 4 4 3 2 2 2 3 5 6 6 7 8 8 8 8 8 9 8 8 8 7 7 6 6 7 6 6 6 4 4 4 4 4 4 3 3 4 3 2 2 2 2 3 3 4 4 6 6 6 6 8 9
8 10 2 4 6 2 8 12 5 6 9 6 6 6 3 -0 1 8 9 4 4 6 6 8 10 10 10 8 7 6 5 6 7 7 7 6 5 5 5 5 5 5 5 5 4 4 3 3 2 2 3 4 5 7 7 8 9 9 9 9 8 9 8 8 7 7 7 6 5 6 6 5 6 5 3 3 3 3 3 3 3 3 3 3 3 3 3 3 4 4 6 7 7 7 7 7 8
8 7 1 6 12 3 7 12 -1 1 12 9 6 8 5 6 4 5 10 7 4 5 6 8 10 10 10 9 7 6 6 5 4 5 6 5 5 5 4 4 5 4 5 5 4 4 3 3 3 3 3 4 5 7 8 8 9 9 9 9 8 8 7 7 7 7 6 5 5 5 5 5 4 5 5 4 4 4 4 4 5 4 4 4 4 4 4 4 4 5 6 8 8 8 7 8 8
6 2 -2 3 11 4 5 12 2 2 10 5 6 9 7 8 1 -2 8 9 4 4 5 7 9 10 11 10 9 8 7 6 4 6 6 5 4 5 4 4 4 5 4 4 4 4 4 4 4 4 4 4 5 7 8 8 8 8 8 7 7 7 7 6 6 7 5 4 5 4 4 4 4 4 4 3 4 4 4 5 6 6 6 5 5 6 6 6 6 6 7 8 9 8 7 8 8
1 -0 1 2 4 -1 5 15 6 1 9 9 5 6 6 7 1 -2 6 9 7 4 4 7 8 9 11 10 10 9 7 7 7 5 6 7 5 4 5 4 4 4 4 5 4 5 5 5 5 5 4 4 5 6 8 8 7 7 7 6 6 5 6 6 5 5 5 4 4 3 3 2 3 3 2 2 2 2 3 5 6 7 8 8 7 8 8 8 8 7 7 8 8 8 7 7 8
-4 0 2 0 -0 0 9 18 9 1 8 10 5 6 8 9 5 0 5 9 8 5 4 6 7 7 10 9 10 10 8 9 9 5 4 7 7 6 5 5 4 4 4 5 5 6 5 5 5 5 5 5 5 6 8 7 6 7 6 5 5 5 4 4 4 3 3 2 1 1 2 1 2 2 2 2 2 3 4 5 7 8 9 9 8 8 8 8 8 7 7 7 8 8 7 7 7
3 1 -0 1 3 4 7 9 3 -0 9 15 8 7 8 9 7 3 6 7 5 7 6 5 6 6 8 8 9 10 10 10 9 7 8 9 8 8 7 6 5 5 5 5 4 4 4 5 5 5 6 6 5 7 7 7 6 6 5 5 4 4 3 2 2 2 1 1 1 2 2 2 3 3 4 5 6 6 6 6 7 8 10 9 8 8 8 8 8 7 7 6 8 8 7 6 7
9 2 -1 2 2 5 8 8 10 10 14 20 12 7 6 6 6 5 7 5 4 8 7 5 7 6 6 7 7 8 8 10 10 8 10 10 8 8 8 8 8 8 7 7 6 4 4 5 6 6 7 7 6 6 7 6 6 5 4 4 2 2 2 2 2 2 2 2 3 4 4 4 6 7 9 10 10 10 10 9 8 7 9 8 7 7 7 7 8 7 6 6 8 9 8 6 6
9 7 5 2 -4 2 10 10 13 3 -7 1 8 8 6 5 8 7 4 2 3 8 7 5 8 8 6 5 6 8 7 7 7 8 10 9 8 9 9 9 10 10 9 8 8 6 6 6 7 7 7 7 6 6 6 5 4 5 3 2 2 2 2 2 3 3 3 3 3 5 6 7 9 10 11 11 11 12 12 12 9 7 7 6 6 6 6 7 7 7 6 7 8 9 9 7 6
7 9 7 7 2 -0 4 9 9 -3 -10 0 5 3 2 5 10 8 4 4 4 6 7 7 7 7 6 5 6 5 6 6 4 5 6 5 6 7 8 9 8 8 8 9 11 9 9 9 7 7 7 6 6 6 6 4 3 3 3 2 2 2 2 2 3 3 2 2 3 5 6 8 10 10 10 9 10 12 14 13 10 8 5 4 4 5 7 8 8 8 7 7 9 9 8 7 7
7 7 3 5 4 -1 0 8 10 4 2 4 -2 -1 6 9 8 6 7 11 8 5 8 8 6 6 5 5 7 4 3 4 2 2 3 3 4 3 3 6 6 6 6 6 9 9 9 10 8 7 8 7 7 7 5 3 4 3 3 3 3 2 3 3 2 3 3 3 5 6 7 8 8 8 8 8 9 11 13 13 10 8 5 5 4 4 6 8 9 10 8 8 9 9 8 6 6
6 5 4 1 -2 -0 4 7 6 0 -3 3 9 14 15 10 7 3 5 9 6 3 7 7 3 5 7 4 3 4 3 3 2 1 1 2 4 4 3 3 3 5 5 5 5 6 7 9 9 7 8 9 8 8 7 5 5 5 4 4 3 2 2 3 3 3 4 5 6 7 7 7 7 7 7 8 9 10 10 10 9 8 6 5 3 3 6 8 10 11 11 10 10 9 8 6 6
9 4 4 5 1 -1 -2 4 8 -2 -6 5 17 18 8 5 14 8 2 6 6 4 5 5 6 6 5 5 4 3 3 4 4 3 4 3 3 5 5 4 5 5 5 5 4 4 5 6 7 7 6 8 8 7 7 6 6 6 6 4 3 3 3 3 4 5 5 5 6 7 6 6 6 6 6 8 9 10 10 9 8 7 6 5 4 6 8 9 10 10 11 11 11 10 9 7 6
14 10 6 2 3 4 -2 5 12 2 -2 -2 -3 7 8 7 20 16 3 3 5 9 7 3 8 9 2 2 5 6 5 5 5 4 4 5 6 6 5 5 7 8 8 7 5 4 6 5 5 6 6 6 7 7 7 7 7 6 5 5 4 3 4 4 5 6 6 6 8 9 7 6 6 6 6 7 9 11 11 11 10 9 8 8 8 9 10 10 11 11 11 10 10 11 10 10 9
12 6 9 3 -1 11 7 3 9 4 6 7 -1 8 14 10 15 16 10 7 4 6 9 6 9 12 7 4 7 8 6 5 5 6 5 6 9 9 8 7 5 6 7 6 5 5 5 6 5 5 6 7 7 8 8 7 7 7 5 5 5 5 4 5 5 6 7 9 10 9 7 5 5 6 7 7 9 10 9 9 9 9 9 8 9 10 10 10 11 11 11 10 9 9 10 10 11
7 -4 2 7 2 11 10 2 8 9 6 13 10 4 5 6 9 12 9 7 9 10 8 6 9 12 10 8 10 11 9 8 8 9 8 8 14 15 12 12 9 8 8 5 6 7 6 5 5 5 5 6 6 6 7 7 7 7 6 5 6 5 4 3 3 5 7 9 10 9 7 5 5 7 8 9 10 10 9 8 8 8 8 8 9 9 9 9 9 9 9 9 9 9 10 10 11
7 1 -5 1 -2 3 14 11 7 9 8 10 11 4 2 6 10 16 11 1 6 14 11 7 6 13 14 6 6 9 8 9 8 10 12 11 17 18 11 11 16 16 13 10 8 7 7 6 5 6 5 4 5 4 4 6 5 5 5 6 6 4 3 2 2 6 8 9 10 9 7 5 8 9 8 8 9 8 8 8 7 7 6 7 8 8 9 9 9 8 6 6 8 8 9 10 10
8 12 7 3 -5 -9 3 10 6 8 10 11 15 8 1 4 10 19 22 8 1 4 10 12 6 10 14 6 8 13 11 11 8 7 12 13 18 20 11 6 11 18 18 17 17 13 12 12 9 8 7 5 5 5 6 6 6 6 6 7 5 3 2 2 4 8 8 9 10 8 6 8 9 9 7 6 6 6 7 6 5 5 5 6 7 6 7 7 8 8 7 5 5 6 8 10 11
7 14 16 6 3 -1 -12 -4 9 8 6 10 16 12 3 1 3 10 12 6 6 9 9 10 6 10 16 10 7 11 15 17 11 7 12 14 14 16 13 6 4 10 15 16 20 21 17 15 12 10 9 9 9 9 10 9 8 8 7 6 4 3 3 5 8 10 9 10 9 7 8 10 10 8 5 4 7 9 9 7 5 5 6 7 9 9 6 5 5 4 5 6 5 4 4 6 9
11 18 19 2 7 12 -12 -11 7 4 3 10 9 10 12 3 -0 15 21 11 10 13 10 12 13 14 17 12 7 13 22 19 9 7 12 13 10 8 7 8 6 7 11 13 16 20 19 16 15 14 14 13 12 10 9 8 7 6 5 5 4 5 7 9 10 11 13 13 10 10 11 10 9 5 -0 2 7 7 5 5 6 6 7 8 10 12 13 12 11 7 5 4 5 5 3 3 4
5 7 20 12 12 15 -3 -6 7 -1 -2 10 9 8 13 6 0 4 4 6 12 9 6 11 12 10 6 3 8 16 17 15 12 10 7 2 2 5 6 8 9 5 6 10 13 15 18 18 18 18 17 15 12 10 8 8 9 8 8 9 8 10 10 11 14 15 16 14 11 12 11 9 8 2 -2 3 9 8 6 9 14 17 17 12 6 6 10 14 16 17 16 11 8 9 6 5 7
0 -9 14 29 26 19 4 -1 7 0 -8 -1 7 13 15 9 6 -4 -11 13 32 22 13 10 5 9 8 3 9 6 -6 -1 11 11 3 -3 -4 4 9 6 4 3 1 2 7 11 12 12 14 14 15 15 13 12 12 11 11 11 11 11 11 12 12 12 14 14 13 13 11 11 11 12 12 7 5 9 14 12 8 6 10 17 20 15 9 7 7 10 12 16 22 21 18 18 9 4 10
20 -5 -7 18 28 18 5 -1 3 -1 -5 1 2 6 14 12 11 5 -0 19 26 9 9 9 -3 1 7 3 1 -2 -7 2 14 9 -1 -3 -4 -1 6 4 -1 0 1 1 2 5 7 7 8 10 10 12 13 13 13 13 12 13 12 12 12 11 10 10 11 12 11 10 7 5 7 11 12 11 7 7 10 10 6 4 7 11 14 14 13 11 8 8 8 9 16 22 23 22 15 9 16
38 18 -19 -16 14 32 23 10 8 -3 -11 3 9 2 3 10 18 12 0 9 12 -3 -5 -2 -2 4 10 7 -6 -11 -2 5 12 17 6 2 5 -0 1 5 2 0 1 2 1 0 4 6 7 8 8 9 10 12 12 11 12 13 11 11 10 8 8 10 11 11 9 5 4 4 6 9 9 8 4 3 6 7 3 3 6 7 10 10 8 8 7 6 7 8 10 15 16 15 13 10 16
30 43 12 -28 -17 28 39 17 11 11 -3 -9 -3 2 6 8 13 13 10 14 9 -4 -7 7 29 32 16 11 1 -6 1 -3 4 27 19 3 4 0 -2 3 3 2 0 0 3 2 3 4 3 6 7 7 8 9 11 11 11 12 10 9 10 8 10 11 9 8 5 3 7 9 9 9 6 3 3 5 7 7 4 4 6 6 8 9 5 4 4 2 3 5 5 8 11 11 13 10 9
Height
5893 5894 5894 5894 5895 5895 5896 5896 5894 5893 5893 5893 5894 5895 5894 5893 5894 5894 5894 5893 5893 5893 5893 5892 5892 5892 5892 5892 5892 5892 5893 5892 5892 5893 5894 5895 5894 5894 5895 5896 5896 5896 5896 5897 5898 5899 5899 5899 5900 5900 5900 5900 5901 5902 5902 5902 5903 5904 5904 5904 5905 5906 5907 5908 5907 5906 5907 5907 5908 5908 5909 5909 5909 5909 5908 5907 5906 5906 5907 5907 5906 5906 5906 5906 5906 5906 5906 5906 5906 5906 5907 5907 5907 5907 5907 5907 5908
5895 5895 5895 5895 5895 5896 5897 5897 5895 5894 5894 5894 5895 5895 5894 5895 5895 5895 5895 5895 5894 5894 5893 5893 5893 5893 5893 5894 5894 5894 5894 5894 5894 5895 5896 5896 5896 5896 5896 5897 5897 5897 5897 5898 5899 5900 5900 5901 5901 5901 5901 5901 5902 5902 5902 5903 5904 5904 5904 5905 5906 5908 5909 5908 5907 5907 5908 5908 5909 5909 5909 5910 5910 5909 5908 5907 5907 5908 5908 5907 5907 5907 5906 5906 5906 5906 5907 5907 5907 5907 5908 5907 5907 5907 5908 5908 5909
5896 5896 5896 5896 5896 5896 5895 5896 5896 5895 5895 5896 5896 5895 5895 5895 5896 5896 5896 5896 5895 5895 5894 5894 5894 5894 5894 5896 5895 5895 5896 5896 5895 5896 5898 5897 5897 5897 5898 5898 5898 5898 5899 5900 5900 5900 5901 5902 5902 5902 5902 5902 5902 5902 5903 5903 5904 5904 5905 5906 5907 5909 5909 5908 5908 5908 5909 5909 5909 5910 5910 5910 5910 5910 5909 5908 5909 5909 5908 5908 5907 5907 5907 5907 5907 5908 5908 5908 5908 5908 5908 5908 5908 5908 5909 5909 5909
5898 5898 5898 5898 5898 5896 5896 5896 5895 5895 5896 5897 5897 5896 5895 5896 5897 5897 5897 5896 5896 5895 5895 5895 5895 5895 5895 5896 5896 5896 5897 5897 5897 5897 5899 5898 5897 5898 5899 5899 5899 5900 5900 5901 5901 5902 5902 5902 5903 5903 5903 5903 5903 5903 5904 5904 5905 5906 5907 5906 5907 5909 5910 5909 5909 5909 5909 5910 5910 5911 5911 5911 5911 5910 5909 5909 5910 5909 5909 5909 5908 5908 5908 5908 5908 5909 5909 5909 5909 5909 5908 5908 5909 5909 5909 5910 5910
5899 5900 5900 5900 5899 5897 5897 5897 5895 5896 5898 5897 5898 5897 5896 5897 5897 5897 5897 5897 5896 5896 5896 5896 5896 5896 5896 5896 5896 5897 5898 5898 5898 5898 5899 5900 5899 5899 5900 5900 5900 5901 5901 5902 5903 5903 5903 5904 5904 5904 5905 5905 5905 5905 5906 5906 5907 5907 5907 5907 5907 5908 5910 5909 5909 5910 5910 5911 5911 5911 5912 5912 5911 5911 5910 5910 5910 5910 5909 5909 5909 5909 5909 5909 5909 5909 5909 5909 5909 5909 5909 5909 5909 5909 5909 5910 5910
5901 5901 5901 5900 5899 5898 5896 5895 5897 5900 5900 5898 5899 5898 5897 5898 5898 5898 5898 5898 5897 5897 5897 5897 5897 5897 5897 5897 5897 5898 5899 5899 5900 5900 5900 5901 5901 5901 5901 5902 5902 5902 5903 5903 5904 5905 5905 5905 5905 5906 5906 5906 5907 5908 5908 5908 5908 5907 5907 5907 5908 5909 5910 5910 5910 5911 5911 5912 5912 5912 5912 5912 5912 5911 5911 5911 5911 5910 5910 5910 5910 5910 5910 5910 5910 5910 5910 5910 5910 5910 5910 5909 5909 5909 5910 5910 5910
5902 5902 5902 5899 5898 5899 5896 5897 5901 5902 5900 5900 5900 5899 5899 5899 5899 5899 5899 5898 5898 5897 5897 5897 5897 5897 5897 5897 5898 5899 5899 5900 5900 5901 5901 5902 5902 5902 5903 5903 5903 5904 5904 5904 5905 5906 5906 5906 5906 5906 5907 5908 5909 5909 5909 5909 5908 5908 5908 5909 5910 5911 5911 5911 5911 5912 5912 5913 5913 5913 5913 5913 5912 5912 5912 5912 5911 5911 5911 5911 5910 5910 5910 5910 5910 5910 5910 5910 5910 5910 5910 5910 5909 5909 5910 5910 5910
5901 5901 5901 5900 5899 5897 5897 5901 5902 5901 5901 5901 5900 5900 5900 5900 5900 5899 5899 5899 5898 5898 5897 5898 5898 5897 5898 5898 5898 5899 5899 5900 5901 5901 5902 5902 5903 5903 5904 5904 5904 5905 5905 5905 5906 5906 5907 5907 5907 5908 5909 5909 5909 5909 5909 5909 5910 5910 5910 5911 5912 5912 5912 5912 5913 5913 5913 5913 5913 5913 5913 5913 5913 5913 5912 5912 5912 5912 5912 5911 5911 5911 5911 5911 5911 5911 5911 5911 5911 5911 5910 5910 5910 5910 5910 5910 5911
5902 5902 5901 5901 5900 5896 5899 5903 5902 5902 5902 5901 5901 5901 5900 5900 5900 5900 5899 5899 5899 5898 5898 5898 5898 5898 5899 5899 5899 5899 5900 5900 5901 5901 5902 5903 5903 5903 5904 5904 5905 5906 5906 5906 5907 5907 5907 5908 5908 5909 5909 5910 5910 5910 5910 5911 5911 5911 5911 5912 5912 5913 5913 5913 5913 5914 5913 5914 5914 5914 5914 5914 5914 5913 5913 5913 5913 5913 5913 5912 5912 5912 5912 5912 5912 5912 5912 5912 5912 5912 5912 5911 5911 5911 5911 5911 5911
5904 5905 5903 5901 5899 5898 5903 5905 5903 5903 5902 5902 5902 5901 5901 5901 5901 5900 5900 5899 5899 5899 5898 5898 5898 5898 5899 5899 5899 5899 5900 5900 5900 5901 5902 5903 5903 5904 5904 5905 5906 5906 5907 5907 5907 5907 5908 5908 5909 5909 5910 5910 5910 5911 5911 5912 5912 5912 5912 5913 5913 5913 5914 5914 5914 5914 5914 5914 5915 5915 5915 5915 5915 5914 5914 5914 5914 5914 5914 5913 5913 5912 5912 5912 5913 5913 5913 5913 5913 5913 5913 5913 5912 5912 5912 5912 5912
5904 5904 5904 5902 5899 5901 5906 5905 5903 5903 5902 5902 5902 5902 5901 5901 5901 5901 5900 5900 5899 5899 5899 5898 5899 5899 5899 5899 5900 5899 5900 5900 5901 5901 5902 5903 5904 5904 5905 5905 5906 5907 5907 5908 5908 5908 5908 5909 5909 5909 5910 5910 5911 5911 5912 5912 5912 5913 5913 5913 5914 5914 5914 5914 5914 5914 5915 5915 5916 5916 5916 5916 5915 5915 5914 5915 5915 5915 5915 5914 5914 5913 5913 5913 5913 5914 5914 5914 5914 5914 5914 5914 5913 5913 5913 5912 5913
5906 5904 5903 5902 5900 5903 5907 5905 5904 5903 5902 5903 5902 5902 5902 5901 5901 5901 5901 5900 5900 5900 5899 5899 5899 5899 5900 5900 5900 5900 5900 5901 5901 5902 5903 5903 5904 5905 5906 5906 5906 5907 5907 5908 5908 5909 5909 5909 5910 5910 5911 5911 5912 5912 5912 5913 5913 5913 5914 5914 5915 5915 5915 5915 5915 5915 5916 5916 5917 5917 5916 5916 5916 5916 5916 5916 5916 5916 5916 5915 5914 5914 5914 5914 5914 5915 5915 5915 5915 5914 5914 5914 5914 5913 5913 5913 5913
5906 5904 5902 5902 5901 5903 5906 5906 5904 5903 5902 5902 5902 5902 5902 5901 5901 5901 5901 5901 5901 5900 5900 5900 5900 5900 5900 5901 5901 5901 5900 5901 5902 5902 5903 5903 5904 5905 5906 5907 5907 5908 5908 5908 5909 5909 5910 5910 5911 5911 5912 5912 5912 5913 5913 5913 5914 5914 5914 5915 5915 5916 5916 5916 5916 5917 5917 5917 5918 5917 5917 5917 5917 5917 5917 5917 5917 5917 5917 5916 5915 5915 5915 5915 5916 5916 5916 5915 5915 5915 5915 5914 5914 5913 5913 5913 5914
5904 5903 5903 5903 5903 5903 5904 5905 5904 5904 5902 5902 5903 5902 5902 5902 5901 5901 5901 5901 5901 5900 5900 5900 5900 5900 5901 5901 5901 5901 5901 5902 5902 5902 5903 5903 5904 5905 5905 5907 5908 5908 5909 5909 5910 5910 5911 5911 5912 5912 5912 5913 5913 5913 5913 5914 5914 5915 5915 5915 5916 5917 5917 5917 5917 5918 5918 5919 5919 5918 5918 5918 5918 5918 5918 5918 5918 5918 5918 5917 5917 5916 5916 5917 5917 5916 5916 5916 5916 5916 5915 5914 5914 5914 5914 5914 5914
5903 5902 5903 5903 5904 5904 5903 5903 5905 5904 5903 5903 5903 5902 5902 5901 5901 5901 5901 5901 5901 5901 5901 5900 5900 5901 5901 5901 5901 5901 5902 5902 5903 5903 5903 5903 5904 5905 5905 5906 5907 5908 5909 5909 5910 5910 5911 5911 5912 5912 5913 5913 5913 5914 5914 5915 5915 5915 5916 5916 5917 5918 5918 5918 5919 5919 5920 5920 5919 5919 5919 5919 5919 5919 5919 5919 5919 5919 5918 5918 5918 5918 5918 5918 5918 5917 5917 5917 5917 5916 5915 5915 5914 5914 5914 5914 5914
5902 5902 5904 5905 5904 5904 5903 5904 5905 5905 5903 5903 5903 5902 5902 5902 5901 5902 5901 5901 5901 5901 5901 5901 5901 5901 5901 5901 5902 5902 5902 5903 5903 5903 5904 5903 5904 5905 5905 5906 5906 5907 5908 5909 5909 5910 5911 5911 5912 5912 5913 5913 5914 5914 5915 5915 5916 5916 5917 5917 5918 5919 5919 5919 5920 5920 5921 5921 5920 5920 5920 5920 5920 5919 5919 5919 5919 5919 5919 5919 5919 5919 5919 5919 5919 5919 5918 5918 5917 5917 5916 5915 5915 5915 5914 5914 5914
5903 5903 5905 5905 5904 5905 5905 5905 5906 5905 5903 5903 5903 5902 5902 5902 5902 5901 5901 5901 5901 5902 5901 5901 5901 5901 5901 5901 5902 5902 5903 5903 5904 5904 5904 5904 5904 5905 5905 5906 5906 5907 5908 5908 5909 5910 5910 5911 5911 5912 5912 5913 5914 5915 5915 5916 5916 5917 5917 5918 5919 5920 5920 5921 5921 5921 5921 5921 5921 5921 5921 5921 5921 5920 5920 5920 5920 5920 5920 5920 5920 5920 5920 5921 5920 5920 5919 5919 5918 5918 5917 5916 5916 5916 5915 5915 5915
5904 5905 5905 5905 5905 5905 5903 5904 5906 5905 5903 5903 5903 5902 5902 5902 5902 5901 5901 5901 5901 5901 5901 5901 5901 5901 5901 5901 5902 5902 5903 5903 5904 5904 5904 5904 5904 5905 5906 5906 5907 5907 5908 5908 5909 5909 5910 5910 5911 5912 5912 5913 5914 5914 5915 5916 5917 5917 5918 5919 5920 5921 5921 5922 5921 5922 5922 5922 5922 5921 5922 5922 5922 5921 5921 5921 5921 5921 5921 5921 5921 5921 5921 5921 5921 5921 5920 5920 5919 5919 5918 5917 5917 5916 5916 5916 5915
5906 5906 5906 5906 5906 5904 5902 5903 5906 5905 5903 5903 5903 5902 5902 5902 5902 5902 5901 5901 5901 5901 5901 5901 5901 5901 5901 5902 5902 5902 5903 5903 5904 5904 5904 5905 5905 5905 5906 5907 5907 5908 5908 5909 5909 5910 5910 5910 5911 5912 5913 5914 5915 5915 5916 5917 5918 5919 5920 5920 5921 5922 5922 5922 5922 5922 5922 5922 5923 5922 5922 5923 5923 5922 5922 5922 5922 5922 5923 5923 5923 5923 5923 5923 5922 5922 5921 5921 5920 5920 5919 5918 5918 5917 5917 5917 5916
5907 5907 5907 5907 5906 5904 5904 5905 5906 5905 5904 5904 5903 5902 5902 5902 5902 5902 5901 5901 5901 5901 5901 5901 5901 5901 5901 5902 5902 5902 5902 5903 5904 5904 5905 5905 5905 5906 5906 5907 5907 5908 5909 5909 5910 5910 5911 5911 5912 5913 5914 5915 5916 5917 5917 5918 5919 5920 5921 5921 5922 5922 5923 5923 5922 5922 5922 5923 5923 5923 5923 5923 5923 5923 5923 5923 5923 5923 5923 5924 5924 5924 5924 5924 5924 5922 5922 5921 5921 5921 5920 5919 5919 5918 5917 5917 5917
5908 5907 5907 5908 5907 5905 5906 5905 5905 5905 5904 5903 5903 5903 5903 5902 5902 5902 5902 5901 5901 5901 5901 5901 5901 5901 5901 5902 5902 5902 5902 5903 5904 5905 5905 5905 5906 5906 5906 5907 5907 5908 5909 5909 5910 5911 5911 5912 5912 5913 5914 5915 5916 5917 5918 5919 5919 5920 5921 5922 5922 5923 5923 5924 5923 5923 5923 5924 5924 5925 5924 5924 5924 5924 5924 5924 5924 5924 5924 5924 5925 5925 5925 5925 5924 5924 5922 5922 5922 5922 5921 5920 5920 5918 5917 5917 5917
5909 5909 5907 5908 5908 5908 5908 5906 5906 5905 5904 5904 5904 5903 5903 5903 5903 5902 5902 5902 5901 5901 5901 5901 5901 5901 5901 5902 5902 5902 5903 5903 5904 5905 5905 5905 5906 5906 5906 5907 5908 5908 5909 5910 5910 5911 5911 5912 5913 5914 5915 5916 5917 5918 5918 5919 5920 5921 5922 5923 5923 5923 5923 5924 5925 5924 5924 5924 5925 5925 5925 5925 5925 5925 5925 5926 5925 5924 5925 5926 5926 5926 5926 5926 5925 5924 5923 5923 5923 5923 5922 5921 5921 5919 5918 5917 5917
5910 5911 5909 5909 5908 5909 5910 5907 5906 5906 5904 5904 5904 5903 5903 5903 5903 5903 5902 5902 5901 5901 5902 5902 5902 5901 5902 5902 5903 5903 5903 5903 5904 5905 5905 5906 5906 5906 5907 5907 5908 5909 5909 5910 5911 5911 5912 5913 5914 5915 5916 5916 5917 5918 5918 5919 5920 5921 5923 5924 5924 5924 5923 5924 5925 5925 5925 5925 5925 5926 5926 5926 5926 5926 5926 5926 5926 5926 5926 5927 5927 5926 5926 5926 5925 5924 5923 5923 5923 5923 5922 5922 5921 5920 5918 5918 5918
5910 5912 5910 5909 5909 5909 5911 5908 5906 5906 5905 5904 5904 5904 5903 5903 5903 5903 5902 5902 5901 5901 5902 5902 5902 5902 5902 5902 5903 5903 5903 5903 5904 5905 5905 5906 5906 5906 5907 5907 5908 5909 5909 5910 5911 5912 5913 5914 5915 5915 5916 5917 5918 5918 5919 5920 5921 5922 5923 5924 5924 5925 5925 5925 5925 5925 5926 5926 5926 5926 5926 5926 5926 5926 5926 5926 5926 5927 5927 5927 5927 5926 5926 5926 5925 5924 5923 5923 5923 5923 5923 5922 5921 5920 5919 5919 5919
5911 5914 5912 5910 5909 5909 5910 5909 5906 5906 5905 5904 5904 5904 5903 5903 5903 5902 5902 5902 5901 5902 5902 5902 5902 5902 5902 5903 5903 5903 5903 5904 5904 5904 5905 5905 5906 5907 5907 5908 5909 5909 5910 5911 5911 5912 5913 5914 5915 5916 5917 5918 5918 5919 5919 5920 5921 5922 5923 5924 5925 5925 5925 5926 5926 5926 5926 5926 5926 5926 5925 5925 5926 5926 5926 5927 5927 5927 5927 5927 5926 5926 5926 5925 5925 5925 5924 5923 5923 5923 5923 5922 5922 5921 5920 5920 5919
5910 5914 5914 5911 5910 5909 5910 5911 5907 5905 5906 5905 5904 5904 5904 5904 5903 5903 5902 5902 5902 5902 5902 5902 5902 5902 5902 5903 5903 5903 5904 5904 5904 5905 5905 5906 5906 5907 5908 5908 5909 5910 5911 5912 5913 5914 5915 5915 5916 5917 5917 5918 5919 5919 5920 5920 5921 5922 5923 5924 5925 5925 5926 5926 5926 5926 5926 5926 5926 5926 5926 5926 5926 5926 5926 5927 5927 5927 5926 5926 5926 5926 5926 5925 5925 5925 5924 5924 5924 5924 5923 5923 5922 5922 5921 5920 5920
5911 5914 5913 5911 5910 5908 5909 5912 5909 5905 5906 5905 5905 5904 5904 5904 5903 5903 5903 5902 5902 5902 5902 5903 5903 5903 5903 5903 5903 5904 5904 5904 5905 5905 5906 5906 5907 5907 5908 5909 5910 5911 5912 5913 5914 5915 5916 5916 5917 5918 5918 5919 5919 5920 5920 5921 5921 5922 5922 5923 5924 5925 5926 5927 5927 5927 5928 5928 5928 5928 5928 5927 5927 5927 5927 5927 5927 5927 5926 5927 5927 5927 5927 5926 5925 5925 5925 5924 5924 5924 5923 5923 5923 5922 5922 5921 5921
5908 5912 5912 5910 5910 5910 5910 5911 5909 5906 5905 5905 5905 5904 5904 5904 5903 5903 5903 5902 5902 5902 5903 5903 5903 5904 5904 5904 5904 5904 5904 5904 5905 5905 5906 5907 5907 5908 5908 5909 5910 5911 5912 5913 5914 5915 5916 5917 5919 5919 5919 5920 5920 5920 5921 5921 5921 5922 5922 5923 5923 5924 5925 5926 5926 5927 5927 5928 5928 5928 5928 5927 5927 5928 5928 5928 5928 5927 5927 5927 5927 5927 5927 5926 5926 5925 5925 5925 5924 5924 5924 5923 5923 5923 5922 5921 5921
5903 5908 5910 5909 5910 5911 5910 5909 5908 5906 5905 5905 5905 5904 5904 5904 5903 5903 5903 5903 5902 5902 5903 5903 5903 5904 5904 5904 5904 5904 5904 5904 5905 5906 5906 5907 5908 5908 5909 5910 5911 5912 5913 5914 5915 5916 5917 5918 5919 5920 5920 5921 5921 5921 5921 5922 5922 5923 5923 5923 5924 5924 5924 5925 5925 5925 5926 5926 5927 5927 5927 5927 5928 5928 5929 5928 5928 5928 5928 5928 5927 5927 5927 5926 5926 5926 5925 5925 5925 5924 5924 5923 5923 5923 5922 5922 5921
5902 5904 5906 5907 5908 5908 5907 5908 5908 5906 5905 5905 5904 5904 5904 5904 5903 5903 5903 5903 5903 5903 5903 5903 5903 5904 5904 5904 5904 5904 5905 5905 5905 5906 5907 5907 5908 5909 5910 5911 5912 5913 5913 5914 5915 5917 5918 5919 5919 5920 5921 5921 5921 5922 5922 5923 5923 5923 5924 5924 5924 5924 5924 5925 5925 5925 5925 5926 5927 5927 5927 5928 5928 5929 5929 5929 5929 5928 5928 5928 5928 5928 5928 5927 5926 5926 5926 5926 5925 5925 5924 5924 5923 5923 5923 5922 5921
5900 5902 5903 5904 5906 5908 5907 5907 5907 5906 5904 5904 5904 5904 5903 5903 5903 5903 5903 5903 5903 5903 5903 5903 5904 5904 5904 5904 5905 5905 5905 5905 5906 5906 5907 5908 5909 5910 5910 5911 5912 5913 5914 5915 5916 5917 5918 5919 5920 5921 5921 5921 5922 5922 5923 5923 5924 5924 5924 5925 5925 5925 5925 5925 5926 5926 5926 5926 5927 5927 5928 5929 5929 5929 5929 5929 5929 5929 5929 5929 5929 5928 5928 5927 5927 5926 5926 5926 5925 5925 5924 5924 5923 5923 5923 5922 5921
5898 5901 5903 5903 5904 5906 5906 5906 5906 5905 5904 5903 5904 5904 5903 5904 5903 5903 5903 5903 5903 5903 5903 5904 5904 5904 5904 5905 5905 5906 5906 5906 5906 5906 5907 5908 5909 5910 5911 5912 5913 5914 5914 5915 5916 5917 5918 5919 5920 5921 5921 5922 5922 5922 5923 5923 5924 5924 5925 5925 5925 5926 5926 5926 5927 5927 5927 5927 5928 5928 5929 5929 5930 5929 5929 5929 5929 5929 5929 5929 5929 5928 5928 5928 5927 5927 5926 5926 5925 5924 5924 5923 5923 5923 5922 5922 5921
5897 5899 5902 5905 5906 5906 5906 5905 5904 5904 5903 5903 5903 5903 5903 5903 5903 5903 5903 5903 5903 5903 5903 5904 5904 5904 5905 5905 5906 5906 5906 5906 5907 5907 5907 5908 5909 5910 5911 5912 5913 5914 5915 5915 5916 5917 5918 5919 5920 5921 5921 5922 5922 5923 5923 5924 5924 5924 5925 5925 5925 5926 5926 5926 5927 5927 5927 5927 5928 5929 5929 5929 5930 5929 5929 5929 5929 5929 5928 5928 5928 5928 5928 5927 5927 5926 5926 5925 5924 5924 5923 5923 5922 5922 5921 5921 5920
5897 5898 5900 5904 5907 5906 5905 5904 5903 5902 5902 5902 5903 5903 5903 5902 5901 5902 5903 5903 5903 5903 5903 5904 5904 5905 5905 5905 5905 5906 5906 5907 5907 5907 5908 5908 5909 5910 5911 5912 5913 5914 5915 5916 5917 5918 5918 5919 5920 5921 5921 5922 5922 5923 5923 5924 5924 5924 5924 5925 5925 5926 5926 5927 5927 5927 5927 5928 5928 5929 5929 5929 5929 5929 5929 5929 5929 5928 5928 5928 5928 5927 5927 5926 5926 5926 5925 5924 5924 5923 5923 5922 5921 5921 5920 5920 5919
5896 5898 5900 5903 5905 5904 5903 5904 5902 5901 5902 5902 5902 5902 5903 5903 5901 5901 5902 5902 5903 5903 5903 5904 5904 5904 5904 5905 5905 5906 5906 5907 5907 5908 5908 5909 5909 5910 5911 5912 5913 5914 5915 5916 5917 5917 5918 5919 5920 5921 5921 5922 5922 5923 5923 5923 5924 5924 5924 5925 5925 5926 5926 5927 5927 5928 5928 5928 5928 5929 5929 5929 5929 5929 5929 5929 5929 5928 5927 5927 5927 5927 5926 5926 5925 5925 5924 5924 5923 5922 5922 5921 5921 5920 5919 5919 5919
5895 5899 5901 5902 5904 5904 5903 5903 5902 5901 5902 5901 5901 5902 5902 5902 5900 5900 5901 5902 5902 5903 5903 5903 5903 5904 5904 5905 5905 5906 5906 5907 5907 5908 5908 5909 5909 5910 5911 5912 5913 5914 5915 5916 5917 5918 5918 5919 5920 5921 5921 5922 5922 5922 5923 5923 5924 5924 5924 5925 5925 5926 5926 5927 5928 5928 5928 5928 5928 5928 5929 5929 5929 5929 5929 5928 5928 5927 5927 5926 5926 5926 5925 5925 5925 5924 5924 5923 5922 5922 5921 5921 5920 5919 5919 5918 5918
5894 5898 5901 5902 5905 5905 5903 5902 5901 5899 5901 5900 5900 5901 5901 5901 5900 5899 5901 5901 5901 5902 5903 5903 5903 5903 5904 5904 5905 5905 5906 5907 5908 5908 5909 5909 5910 5910 5911 5912 5913 5914 5915 5916 5916 5917 5918 5919 5920 5920 5921 5921 5922 5922 5922 5923 5923 5924 5924 5925 5925 5926 5926 5927 5928 5928 5928 5927 5927 5928 5928 5928 5928 5928 5928 5927 5927 5926 5926 5926 5926 5925 5925 5924 5924 5923 5923 5922 5922 5921 5920 5920 5919 5918 5918 5917 5917
5891 5895 5900 5903 5905 5904 5902 5903 5901 5898 5899 5900 5899 5900 5900 5900 5899 5899 5899 5900 5901 5901 5902 5902 5903 5903 5903 5904 5904 5905 5906 5907 5908 5909 5910 5910 5910 5911 5911 5912 5912 5914 5914 5915 5916 5917 5918 5919 5919 5920 5920 5921 5921 5922 5922 5922 5923 5923 5924 5925 5925 5926 5926 5927 5927 5927 5927 5927 5927 5927 5927 5927 5927 5927 5926 5926 5926 5926 5926 5926 5925 5925 5924 5923 5922 5922 5921 5921 5920 5920 5919 5918 5918 5917 5917 5916 5915
5889 5891 5896 5900 5902 5902 5900 5902 5902 5897 5897 5899 5898 5898 5899 5899 5899 5898 5898 5900 5900 5901 5901 5901 5902 5903 5903 5903 5904 5904 5905 5906 5907 5908 5909 5910 5911 5912 5912 5912 5912 5913 5914 5915 5916 5917 5917 5918 5919 5919 5920 5920 5921 5921 5922 5922 5923 5923 5924 5925 5925 5926 5926 5926 5927 5927 5927 5927 5927 5926 5926 5926 5926 5926 5925 5925 5925 5925 5925 5925 5924 5923 5923 5922 5921 5920 5919 5919 5918 5918 5917 5917 5916 5915 5915 5914 5914
5886 5888 5891 5895 5899 5900 5900 5901 5901 5897 5895 5897 5897 5897 5898 5898 5898 5897 5898 5899 5899 5899 5900 5900 5901 5902 5903 5903 5903 5904 5904 5905 5906 5907 5908 5909 5911 5912 5913 5912 5912 5913 5914 5915 5916 5916 5917 5917 5918 5918 5919 5920 5921 5921 5921 5922 5922 5923 5924 5924 5925 5925 5926 5926 5926 5926 5926 5926 5926 5926 5926 5926 5926 5925 5925 5925 5925 5924 5924 5923 5922 5922 5921 5920 5920 5919 5918 5917 5916 5916 5915 5915 5914 5914 5913 5913 5912
5883 5885 5888 5892 5896 5899 5900 5901 5900 5896 5894 5895 5896 5895 5895 5895 5896 5896 5896 5897 5897 5898 5899 5899 5900 5901 5902 5902 5903 5903 5904 5905 5906 5906 5907 5907 5909 5910 5911 5912 5912 5913 5914 5915 5915 5916 5916 5917 5917 5918 5919 5919 5920 5920 5921 5921 5922 5923 5923 5924 5924 5925 5925 5925 5925 5925 5925 5925 5925 5926 5926 5926 5925 5925 5924 5924 5924 5923 5922 5922 5921 5920 5920 5919 5918 5918 5917 5916 5915 5914 5913 5913 5912 5912 5911 5911 5910
5881 5883 5885 5889 5894 5898 5899 5899 5899 5896 5892 5893 5894 5893 5893 5893 5894 5894 5894 5895 5895 5897 5898 5898 5899 5900 5900 5901 5902 5903 5904 5905 5905 5906 5906 5907 5908 5909 5910 5910 5911 5912 5913 5914 5915 5915 5916 5916 5917 5917 5918 5919 5919 5920 5920 5921 5921 5922 5923 5923 5924 5924 5924 5924 5924 5924 5924 5924 5925 5925 5925 5925 5924 5924 5923 5923 5922 5921 5921 5920 5919 5919 5918 5918 5917 5916 5916 5915 5914 5913 5912 5911 5911 5910 5910 5910 5909
5878 5881 5884 5886 5890 5895 5897 5898 5898 5896 5892 5891 5891 5892 5892 5892 5892 5893 5893 5894 5894 5895 5896 5897 5898 5898 5899 5900 5901 5902 5903 5904 5904 5905 5906 5907 5907 5908 5909 5909 5910 5911 5912 5913 5913 5914 5915 5916 5916 5917 5917 5918 5918 5919 5920 5920 5921 5921 5922 5922 5923 5923 5923 5923 5923 5923 5923 5924 5924 5924 5924 5924 5923 5923 5922 5921 5920 5919 5919 5918 5918 5917 5917 5916 5916 5915 5914 5913 5913 5912 5911 5910 5910 5909 5908 5908 5907
5875 5880 5885 5886 5886 5890 5894 5896 5897 5894 5892 5890 5889 5889 5890 5889 5890 5891 5891 5892 5892 5892 5894 5895 5896 5897 5898 5899 5899 5900 5901 5902 5903 5903 5904 5905 5906 5906 5907 5908 5909 5909 5910 5911 5912 5913 5914 5914 5915 5916 5916 5917 5917 5918 5919 5919 5920 5920 5921 5921 5922 5922 5922 5922 5922 5922 5922 5923 5923 5923 5923 5922 5921 5921 5920 5919 5919 5918 5917 5917 5916 5916 5915 5915 5914 5914 5913 5912 5911 5911 5910 5909 5908 5907 5907 5906 5905
5874 5879 5883 5885 5886 5887 5890 5894 5895 5892 5889 5887 5887 5887 5886 5886 5887 5889 5889 5889 5889 5890 5892 5893 5894 5895 5897 5897 5898 5899 5900 5902 5901 5901 5901 5903 5904 5904 5905 5906 5907 5908 5909 5910 5911 5912 5913 5913 5914 5915 5915 5916 5916 5917 5918 5918 5919 5919 5920 5920 5920 5920 5920 5920 5920 5921 5921 5922 5922 5921 5921 5921 5920 5919 5919 5918 5917 5916 5916 5915 5915 5914 5914 5913 5913 5912 5911 5911 5910 5909 5908 5908 5907 5906 5905 5904 5903
5873 5876 5879 5883 5885 5886 5887 5889 5892 5892 5886 5883 5885 5885 5883 5883 5885 5886 5886 5886 5888 5889 5891 5891 5892 5894 5895 5895 5896 5897 5899 5901 5901 5901 5902 5902 5902 5902 5903 5904 5906 5907 5908 5909 5909 5910 5911 5912 5913 5913 5914 5915 5915 5916 5916 5917 5917 5918 5919 5919 5919 5919 5919 5919 5919 5919 5920 5920 5920 5920 5919 5919 5919 5918 5918 5917 5916 5915 5915 5914 5914 5913 5912 5912 5911 5910 5909 5908 5908 5907 5906 5906 5905 5904 5903 5902 5901
5871 5874 5875 5879 5882 5885 5886 5886 5888 5888 5883 5881 5884 5884 5882 5880 5881 5883 5884 5885 5887 5888 5889 5889 5890 5893 5893 5893 5895 5896 5898 5900 5901 5902 5903 5903 5903 5902 5902 5903 5904 5905 5907 5907 5908 5909 5910 5911 5911 5912 5913 5913 5914 5914 5915 5915 5916 5917 5917 5917 5917 5918 5917 5917 5918 5918 5919 5919 5918 5918 5918 5918 5917 5917 5916 5916 5915 5914 5914 5913 5913 5912 5911 5910 5909 5909 5908 5907 5905 5905 5904 5904 5903 5902 5901 5900 5899
5867 5870 5873 5875 5877 5881 5883 5883 5884 5881 5878 5880 5884 5884 5881 5876 5877 5880 5882 5884 5886 5886 5887 5887 5888 5890 5891 5892 5894 5895 5896 5898 5899 5900 5901 5903 5904 5904 5903 5902 5902 5904 5905 5906 5907 5907 5908 5909 5910 5911 5911 5912 5912 5913 5913 5914 5914 5915 5915 5915 5916 5916 5916 5916 5916 5917 5918 5917 5917 5916 5916 5916 5916 5916 5915 5915 5914 5913 5912 5912 5911 5910 5909 5908 5907 5906 5906 5905 5904 5903 5902 5902 5901 5900 5899 5898 5897
5860 5864 5868 5870 5873 5876 5876 5877 5878 5876 5876 5880 5883 5884 5878 5873 5875 5879 5881 5883 5883 5883 5885 5885 5885 5887 5888 5890 5892 5894 5895 5895 5896 5898 5899 5901 5903 5904 5903 5901 5901 5902 5903 5904 5905 5906 5907 5908 5908 5909 5910 5910 5911 5911 5911 5912 5913 5913 5913 5914 5914 5914 5914 5914 5915 5916 5916 5915 5915 5915 5915 5915 5915 5914 5914 5913 5912 5911 5911 5910 5909 5908 5908 5907 5906 5904 5904 5903 5902 5901 5900 5899 5899 5898 5897 5896 5895
5854 5858 5862 5864 5867 5869 5870 5871 5874 5874 5876 5878 5881 5881 5875 5871 5874 5876 5879 5880 5880 5881 5883 5883 5884 5884 5886 5888 5890 5891 5893 5893 5894 5896 5898 5899 5901 5902 5901 5900 5899 5900 5901 5903 5904 5905 5906 5907 5907 5908 5908 5908 5909 5909 5909 5910 5911 5911 5911 5912 5912 5912 5912 5913 5913 5914 5914 5913 5913 5914 5914 5914 5913 5913 5912 5911 5911 5910 5909 5908 5908 5906 5905 5905 5904 5903 5902 5901 5900 5899 5898 5897 5896 5895 5895 5894 5893
5851 5855 5858 5859 5861 5863 5866 5869 5871 5873 5875 5876 5877 5875 5871 5871 5873 5874 5877 5877 5877 5879 5880 5880 5881 5881 5883 5886 5887 5889 5890 5892 5893 5895 5896 5898 5899 5899 5898 5897 5897 5898 5899 5901 5902 5903 5904 5905 5905 5905 5906 5906 5907 5907 5908 5908 5909 5909 5910 5910 5910 5910 5910 5911 5912 5912 5912 5912 5912 5912 5912 5912 5912 5911 5910 5909 5909 5908 5907 5906 5905 5905 5903 5902 5902 5901 5900 5899 5898 5897 5895 5894 5893 5893 5892 5891 5890
5847 5852 5853 5854 5856 5860 5864 5868 5869 5872 5873 5873 5872 5871 5870 5872 5872 5873 5875 5875 5875 5877 5878 5878 5878 5879 5880 5882 5885 5888 5888 5890 5892 5893 5894 5895 5897 5897 5896 5895 5895 5895 5897 5898 5900 5901 5901 5902 5902 5903 5904 5904 5905 5905 5906 5906 5907 5907 5908 5908 5908 5908 5908 5909 5910 5910 5910 5910 5910 5910 5910 5910 5910 5909 5908 5907 5907 5906 5905 5904 5903 5902 5901 5900 5899 5898 5897 5896 5895 5894 5893 5892 5891 5890 5889 5889 5888
5845 5846 5846 5849 5855 5859 5862 5864 5866 5869 5868 5867 5869 5870 5872 5873 5870 5870 5872 5872 5873 5874 5874 5876 5876 5878 5878 5878 5882 5885 5885 5888 5890 5890 5891 5893 5894 5896 5895 5893 5892 5894 5895 5897 5897 5898 5899 5899 5900 5901 5902 5902 5903 5903 5904 5904 5905 5906 5906 5906 5906 5906 5906 5907 5907 5907 5908 5908 5908 5908 5908 5908 5908 5907 5906 5905 5904 5903 5903 5901 5900 5899 5898 5897 5896 5896 5895 5893 5892 5891 5889 5888 5888 5887 5886 5886 5885
5841 5842 5843 5849 5853 5855 5857 5860 5861 5862 5861 5863 5866 5867 5870 5872 5869 5867 5869 5870 5870 5870 5871 5874 5875 5876 5876 5875 5878 5882 5884 5886 5888 5888 5889 5890 5892 5893 5893 5891 5891 5892 5894 5895 5896 5897 5897 5898 5898 5899 5900 5900 5900 5901 5901 5902 5903 5904 5904 5903 5903 5904 5904 5905 5906 5906 5906 5906 5906 5906 5906 5906 5906 5905 5904 5903 5902 5901 5900 5899 5898 5897 5896 5894 5894 5893 5892 5890 5889 5887 5886 5885 5884 5884 5884 5883 5883
5834 5838 5843 5846 5846 5847 5851 5853 5854 5856 5857 5860 5863 5863 5864 5868 5868 5866 5866 5867 5867 5868 5869 5871 5873 5875 5875 5873 5874 5879 5883 5884 5886 5886 5886 5887 5889 5890 5890 5890 5890 5891 5892 5894 5895 5895 5896 5897 5897 5898 5898 5898 5898 5899 5900 5901 5901 5902 5901 5901 5901 5902 5903 5903 5904 5904 5904 5904 5904 5904 5905 5904 5903 5903 5903 5901 5900 5899 5898 5897 5896 5895 5893 5892 5891 5890 5889 5887 5886 5884 5883 5882 5881 5880 5881 5880 5880
5829 5834 5839 5840 5840 5842 5846 5847 5848 5852 5855 5857 5859 5860 5861 5864 5867 5867 5865 5865 5865 5865 5866 5868 5871 5875 5876 5874 5873 5876 5881 5883 5884 5885 5884 5884 5886 5887 5888 5888 5889 5890 5891 5892 5893 5894 5895 5895 5896 5896 5897 5897 5897 5898 5899 5899 5899 5899 5899 5899 5900 5900 5901 5902 5902 5902 5902 5902 5903 5903 5903 5902 5902 5901 5900 5899 5898 5897 5896 5895 5894 5893 5891 5890 5888 5887 5886 5884 5883 5882 5880 5879 5878 5878 5878 5877 5876
5823 5826 5829 5833 5836 5838 5842 5844 5844 5847 5850 5853 5855 5856 5857 5861 5866 5867 5865 5864 5863 5863 5864 5865 5868 5873 5877 5877 5874 5874 5878 5881 5882 5883 5883 5883 5882 5883 5884 5886 5887 5888 5889 5891 5892 5893 5893 5894 5895 5895 5895 5896 5896 5897 5897 5897 5897 5897 5897 5897 5898 5899 5899 5900 5900 5900 5900 5900 5901 5901 5901 5900 5900 5899 5898 5897 5896 5895 5894 5893 5892 5890 5889 5888 5886 5885 5884 5882 5880 5879 5878 5877 5876 5875 5874 5874 5873
5819 5821 5824 5828 5833 5835 5837 5839 5841 5843 5844 5847 5851 5852 5854 5859 5863 5863 5864 5863 5860 5860 5863 5863 5865 5868 5872 5876 5874 5870 5874 5879 5879 5879 5880 5880 5880 5880 5880 5882 5884 5886 5888 5889 5890 5891 5892 5892 5893 5893 5894 5895 5895 5895 5895 5895 5895 5895 5895 5895 5896 5897 5897 5898 5898 5898 5898 5899 5899 5898 5898 5898 5898 5897 5896 5895 5894 5893 5892 5891 5890 5888 5887 5886 5884 5883 5881 5880 5878 5876 5875 5874 5873 5872 5871 5870 5869